Time,TemperatureF,DewpointF,PressureIn,WindDirection,WindDirectionDegrees,WindSpeedMPH,WindSpeedGustMPH,Humidity,HourlyPrecipIn,Conditions,Clouds,dailyrainin,SoftwareType,DateUTC
2013-05-15 00:11:00,76.0,50.0,29.30,SSE,150,5.0,-999.0,40,0.00,,,0.00,,2013-05-15 07:11:00,
2013-05-15 00:21:00,76.0,50.0,29.30,SSE,150,5.0,-999.0,40,0.00,,,0.00,,2013-05-15 07:21:00,
2013-05-15 00:32:00,76.0,50.0,29.30,SSE,150,5.0,-999.0,40,0.00,,,0.00,,2013-05-15 07:32:00,
2013-05-15 00:41:00,76.0,50.0,29.30,SSE,150,5.0,-999.0,40,0.00,,,0.00,,2013-05-15 07:41:00,
2013-05-15 01:12:00,73.0,51.0,29.31,SE,134,6.0,-999.0,46,0.00,,,0.01,,2013-05-15 08:12:00,
2013-05-15 01:21:00,73.0,51.0,29.31,SE,134,6.0,-999.0,46,0.00,,,0.01,,2013-05-15 08:21:00,
2013-05-15 01:32:00,73.0,51.0,29.31,SE,134,6.0,-999.0,46,0.00,,,0.01,,2013-05-15 08:32:00,
2013-05-15 01:42:00,73.0,51.0,29.31,SE,134,6.0,-999.0,46,0.00,,,0.01,,2013-05-15 08:42:00,
2013-05-15 02:11:00,73.0,48.0,29.32,ESE,122,6.0,-999.0,42,0.00,,,0.01,,2013-05-15 09:11:00,
2013-05-15 02:21:00,73.0,48.0,29.32,ESE,122,6.0,-999.0,42,0.00,,,0.01,,2013-05-15 09:21:00,
2013-05-15 02:32:00,73.0,48.0,29.32,ESE,122,6.0,-999.0,42,0.00,,,0.01,,2013-05-15 09:32:00,
2013-05-15 02:42:00,73.0,48.0,29.32,ESE,122,6.0,-999.0,42,0.00,,,0.01,,2013-05-15 09:42:00,
2013-05-15 03:12:00,71.0,50.0,29.33,SSE,151,4.0,-999.0,48,0.00,,,0.01,,2013-05-15 10:12:00,
2013-05-15 03:22:00,71.0,50.0,29.33,SSE,151,4.0,-999.0,48,0.00,,,0.01,,2013-05-15 10:22:00,
2013-05-15 03:32:00,71.0,50.0,29.33,SSE,151,4.0,-999.0,48,0.00,,,0.01,,2013-05-15 10:32:00,
2013-05-15 03:42:00,71.0,50.0,29.33,SSE,151,4.0,-999.0,48,0.00,,,0.01,,2013-05-15 10:42:00,
2013-05-15 04:17:00,69.0,50.0,29.33,SSE,153,5.0,-999.0,51,-99.99,,,-99.99,,2013-05-15 11:17:00,
2013-05-15 04:26:00,69.0,50.0,29.33,SSE,153,5.0,-999.0,51,-99.99,,,-99.99,,2013-05-15 11:26:00,
2013-05-15 04:34:00,69.0,50.0,29.33,SSE,153,5.0,-999.0,51,-99.99,,,-99.99,,2013-05-15 11:34:00,
2013-05-15 05:13:00,68.0,50.0,29.33,West,281,4.0,-999.0,52,0.00,,,0.00,,2013-05-15 12:13:00,
2013-05-15 05:25:00,68.0,50.0,29.33,West,281,4.0,-999.0,52,0.00,,,0.00,,2013-05-15 12:25:00,
2013-05-15 05:35:00,68.0,50.0,29.33,West,281,4.0,-999.0,52,0.00,,,0.00,,2013-05-15 12:35:00,
2013-05-15 05:44:00,68.0,50.0,29.33,West,281,4.0,-999.0,52,0.00,,,0.00,,2013-05-15 12:44:00,
2013-05-15 06:15:00,67.0,49.0,29.34,SSW,213,4.0,-999.0,53,0.00,,,0.00,,2013-05-15 13:15:00,
2013-05-15 06:24:00,67.0,49.0,29.34,SSW,213,4.0,-999.0,53,0.00,,,0.00,,2013-05-15 13:24:00,
2013-05-15 06:35:00,67.0,49.0,29.34,SSW,213,4.0,-999.0,53,0.00,,,0.00,,2013-05-15 13:35:00,
2013-05-15 06:44:00,67.0,49.0,29.34,SSW,213,4.0,-999.0,53,0.00,,,0.00,,2013-05-15 13:44:00,
2013-05-15 07:12:00,65.0,51.0,29.36,NNW,341,2.0,-999.0,60,0.00,,,0.00,,2013-05-15 14:12:00,
2013-05-15 07:25:00,65.0,51.0,29.36,NNW,341,2.0,-999.0,60,0.00,,,0.00,,2013-05-15 14:25:00,
2013-05-15 07:36:00,65.0,51.0,29.36,NNW,341,2.0,-999.0,60,0.00,,,0.00,,2013-05-15 14:36:00,
2013-05-15 07:43:00,65.0,51.0,29.36,NNW,341,2.0,-999.0,60,0.00,,,0.00,,2013-05-15 14:43:00,
2013-05-15 07:45:00,70.0,50.0,29.37,SW,231,4.0,-999.0,50,0.00,,,0.01,,2013-05-15 14:45:00,
2013-05-15 08:15:00,70.0,50.0,29.37,SW,231,4.0,-999.0,50,0.00,,,0.01,,2013-05-15 15:15:00,
2013-05-15 08:26:00,70.0,50.0,29.37,SW,231,4.0,-999.0,50,0.00,,,0.01,,2013-05-15 15:26:00,
2013-05-15 08:35:00,70.0,50.0,29.37,SW,231,4.0,-999.0,50,0.00,,,0.01,,2013-05-15 15:35:00,
2013-05-15 09:27:00,74.0,49.0,29.38,WSW,238,5.0,-999.0,42,0.00,,,0.01,,2013-05-15 16:27:00,
2013-05-15 09:34:00,74.0,49.0,29.38,WSW,238,5.0,-999.0,42,0.00,,,0.01,,2013-05-15 16:34:00,
2013-05-15 10:45:00,83.0,50.0,29.37,WNW,282,4.0,-999.0,32,-99.99,,,0.00,,2013-05-15 17:45:00,
2013-05-15 11:13:00,83.0,50.0,29.37,WNW,282,4.0,-999.0,32,-99.99,,,0.00,,2013-05-15 18:13:00,
2013-05-15 11:25:00,83.0,50.0,29.37,WNW,282,4.0,-999.0,32,-99.99,,,0.00,,2013-05-15 18:25:00,
2013-05-15 11:35:00,83.0,50.0,29.37,WNW,282,4.0,-999.0,32,-99.99,,,0.00,,2013-05-15 18:35:00,
2013-05-15 12:26:00,82.0,49.0,29.36,WSW,256,3.0,-999.0,31,0.00,,,0.00,,2013-05-15 19:26:00,
2013-05-15 12:35:00,82.0,49.0,29.36,WSW,256,3.0,-999.0,31,0.00,,,0.00,,2013-05-15 19:35:00,
2013-05-15 12:43:00,82.0,49.0,29.36,WSW,256,3.0,-999.0,31,0.00,,,0.00,,2013-05-15 19:43:00,
2013-05-15 13:25:00,83.0,49.0,29.34,WSW,256,7.0,-999.0,30,0.01,,,0.00,,2013-05-15 20:25:00,
2013-05-15 13:34:00,83.0,49.0,29.34,WSW,256,7.0,-999.0,30,0.01,,,0.00,,2013-05-15 20:34:00,
2013-05-15 13:44:00,83.0,49.0,29.34,WSW,256,7.0,-999.0,30,0.01,,,0.00,,2013-05-15 20:44:00,
2013-05-15 13:45:00,86.0,49.0,29.33,WSW,255,1.0,-999.0,28,0.00,,,0.00,,2013-05-15 20:45:00,
2013-05-15 14:17:00,86.0,49.0,29.33,WSW,255,1.0,-999.0,28,0.00,,,0.00,,2013-05-15 21:17:00,
2013-05-15 14:26:00,86.0,49.0,29.33,WSW,255,1.0,-999.0,28,0.00,,,0.00,,2013-05-15 21:26:00,
2013-05-15 14:45:00,87.0,48.0,29.32,West,265,5.0,-999.0,26,0.00,,,0.00,,2013-05-15 21:45:00,
2013-05-15 15:27:00,87.0,48.0,29.32,West,265,5.0,-999.0,26,0.00,,,0.00,,2013-05-15 22:27:00,
2013-05-15 15:36:00,87.0,48.0,29.32,West,265,5.0,-999.0,26,0.00,,,0.00,,2013-05-15 22:36:00,
2013-05-15 16:14:00,90.0,45.0,29.30,West,261,5.0,-999.0,21,0.00,,,0.00,,2013-05-15 23:14:00,
2013-05-15 16:26:00,90.0,45.0,29.30,West,261,5.0,-999.0,21,0.00,,,0.00,,2013-05-15 23:26:00,
2013-05-15 16:35:00,90.0,45.0,29.30,West,261,5.0,-999.0,21,0.00,,,0.00,,2013-05-15 23:35:00,
2013-05-15 16:44:00,90.0,45.0,29.30,West,261,5.0,-999.0,21,0.00,,,0.00,,2013-05-15 23:44:00,
2013-05-15 17:16:00,90.0,44.0,29.28,West,273,6.0,-999.0,20,0.00,,,0.00,,2013-05-16 00:16:00,
2013-05-15 17:24:00,90.0,44.0,29.28,West,273,6.0,-999.0,20,0.00,,,0.00,,2013-05-16 00:24:00,
2013-05-15 17:34:00,90.0,44.0,29.28,West,273,6.0,-999.0,20,0.00,,,0.00,,2013-05-16 00:34:00,
2013-05-15 17:44:00,90.0,44.0,29.28,West,273,6.0,-999.0,20,0.00,,,0.00,,2013-05-16 00:44:00,
2013-05-15 17:45:00,88.0,41.0,29.27,West,264,4.0,-999.0,19,0.00,,,0.00,,2013-05-16 00:45:00,
2013-05-15 18:14:00,88.0,41.0,29.27,West,264,4.0,-999.0,19,0.00,,,0.00,,2013-05-16 01:14:00,
2013-05-15 20:14:00,83.0,45.0,29.26,WNW,295,2.0,-999.0,26,-99.99,,,0.00,,2013-05-16 03:14:00,
2013-05-15 20:24:00,83.0,45.0,29.26,WNW,295,2.0,-999.0,26,-99.99,,,0.00,,2013-05-16 03:24:00,
2013-05-15 20:33:00,83.0,45.0,29.26,WNW,295,2.0,-999.0,26,-99.99,,,0.00,,2013-05-16 03:33:00,
2013-05-15 20:44:00,83.0,45.0,29.26,WNW,295,2.0,-999.0,26,-99.99,,,0.00,,2013-05-16 03:44:00,
2013-05-15 21:12:00,80.0,37.0,29.28,WNW,284,5.0,-999.0,21,0.00,,,0.00,,2013-05-16 04:12:00,
2013-05-15 21:23:00,80.0,37.0,29.28,WNW,284,5.0,-999.0,21,0.00,,,0.00,,2013-05-16 04:23:00,
2013-05-15 21:42:00,80.0,37.0,29.28,WNW,284,5.0,-999.0,21,0.00,,,0.00,,2013-05-16 04:42:00,
2013-05-15 22:12:00,77.0,38.0,29.29,WNW,299,2.0,-999.0,24,0.00,,,0.00,,2013-05-16 05:12:00,
2013-05-15 22:22:00,77.0,38.0,29.29,WNW,299,2.0,-999.0,24,0.00,,,0.00,,2013-05-16 05:22:00,
2013-05-15 22:42:00,77.0,38.0,29.29,WNW,299,2.0,-999.0,24,0.00,,,0.00,,2013-05-16 05:42:00,
2013-05-15 23:12:00,75.0,39.0,29.31,SSW,192,4.0,-999.0,28,0.00,,,0.00,,2013-05-16 06:12:00,
2013-05-15 23:22:00,75.0,39.0,29.31,SSW,192,4.0,-999.0,28,0.00,,,0.00,,2013-05-16 06:22:00,
2013-05-15 23:33:00,75.0,39.0,29.31,SSW,192,4.0,-999.0,28,0.00,,,0.00,,2013-05-16 06:33:00,
2013-05-15 23:43:00,75.0,39.0,29.31,SSW,192,4.0,-999.0,28,0.00,,,0.00,,2013-05-16 06:43:00,